Overview Statistics Trail Chart Weather Telemetry Raw packets
 

This is the latest recevied weather packets stored in our database for station/object OE3APM-13. If no packets are shown the sender has not sent any weather packets the latest 10 day(s).

<< 28 29 30 31 32 33 34 >>
Time Temp. Humidity Pressure Rain* Wind** Luminosity Snow
1788420068 18.89° C 68% 1022.1 hPa 0 mm - 54 W/m² -
1788419769 18.33° C 70% 1022.2 hPa 0 mm - 109 W/m² -
1788419468 17.78° C 72% 1022.1 hPa 0 mm - 248 W/m² -
1788419169 17.22° C 75% 1022 hPa 0 mm - 396 W/m² -
1788418868 16.67° C 77% 1022 hPa 0 mm - 218 W/m² -
1788418569 16.11° C 78% 1022 hPa 0 mm - 165 W/m² -
1788418267 15.56° C 79% 1022 hPa 0 mm - 60 W/m² -
1788417967 15.56° C 81% 1022 hPa 0 mm - 125 W/m² -
1788417666 15° C 83% 1022 hPa 0 mm - 207 W/m² -
1788417366 14.44° C 84% 1022 hPa 0 mm - 253 W/m² -
1788417064 14.44° C 85% 1022 hPa 0 mm - 67 W/m² -
1788416763 13.89° C 86% 1021.8 hPa 0 mm - 141 W/m² -
1788416458 13.89° C 86% 1021.8 hPa 0 mm - 54 W/m² -
1788416155 13.33° C 86% 1021.8 hPa 0 mm - 211 W/m² -
1788415849 13.33° C 87% 1021.8 hPa 0 mm - 69 W/m² -
1788415541 13.33° C 87% 1021.8 hPa 0 mm - 46 W/m² -
1788415232 13.33° C 87% 1022 hPa 0 mm - 47 W/m² -
1788414927 13.33° C 87% 1022 hPa 0 mm - 51 W/m² -
1788414625 12.78° C 87% 1022 hPa 0 mm - 90 W/m² -
1788414325 12.78° C 86% 1021.8 hPa 0 mm - 84 W/m² -
1788414025 12.78° C 86% 1021.7 hPa 0 mm - 53 W/m² -
1788413724 12.78° C 86% 1021.7 hPa 0 mm - 25 W/m² -
1788413427 12.78° C 86% 1021.7 hPa 0 mm - 14 W/m² -
1788413121 12.78° C 86% 1021.7 hPa 0 mm - 11 W/m² -
1788412822 12.78° C 86% 1021.6 hPa 0 mm - 11 W/m² -

* Rain latest hour (hover to see other rain measurements)
** Current wind speed in m/s (hover to see current wind gust speed)